OE-11049 Weather Reports


time (UTC)temp
C
wind
direction
speed
KPH
gust
KPH
rain 1hr
cm
rain 24hr
cm
rain mn
cm
humidity
%
barometer
mb
20260903073517 20 255 3.2 6.4 0.00 0.00 0.00 62 1021.4
20260903072517 20 245 4.8 11.3 0.00 0.00 0.00 63 1021.5
20260903071131 20 246 4.8 14.5 0.00 0.00 0.00 60 1021.5
20260903070518 18 170 3.2 8.0 0.00 0.00 0.00 68 1021.6
20260903065518 18 158 4.8 8.0 0.00 0.00 0.00 70 1021.6
20260903064130 18 164 4.8 9.7 0.00 0.00 0.00 69 1021.6
20260903063517 17 170 6.4 11.3 0.00 0.00 0.00 72 1021.8
20260903062518 17 164 4.8 9.7 0.00 0.00 0.00 73 1021.8
20260903061131 17 161 4.8 9.7 0.00 0.00 0.00 74 1021.8
20260903060518 17 146 6.4 9.7 0.00 0.00 0.00 77 1021.8
20260903055517 16 144 4.8 9.7 0.00 0.00 0.00 78 1021.8
20260903054130 16 143 4.8 8.0 0.00 0.00 0.00 78 1021.8
20260903053517 16 141 6.4 9.7 0.00 0.00 0.00 79 1021.9
20260903052518 16 138 4.8 9.7 0.00 0.00 0.00 79 1021.8
20260903051131 16 147 4.8 8.0 0.00 0.00 0.00 77 1021.7
20260903050517 16 145 6.4 9.7 0.00 0.00 0.00 77 1021.6
20260903045518 16 145 6.4 8.0 0.00 0.00 0.00 78 1021.6
20260903044130 16 142 6.4 9.7 0.00 0.00 0.00 77 1021.6
20260903043517 16 142 6.4 9.7 0.00 0.00 0.00 76 1021.4
20260903042518 16 147 4.8 8.0 0.00 0.00 0.00 75 1021.3
20260903041130 16 148 6.4 9.7 0.00 0.00 0.00 75 1021.2
20260903040518 16 140 4.8 9.7 0.00 0.00 0.00 78 1021.3
20260903035518 16 151 4.8 8.0 0.00 0.00 0.00 77 1021.3
20260903034517 16 147 4.8 9.7 0.00 0.00 0.00 77 1021.1
20260903033517 16 149 6.4 8.0 0.00 0.00 0.00 77 1021.1
20260903032518 16 149 6.4 8.0 0.00 0.00 0.00 77 1021.2
20260903031131 16 146 4.8 9.7 0.00 0.00 0.00 79 1021.2
20260903030518 16 137 6.4 9.7 0.00 0.00 0.00 81 1021.2
20260903025518 16 137 6.4 9.7 0.00 0.00 0.00 80 1021.2
20260903024518 16 136 6.4 9.7 0.00 0.00 0.00 82 1021.2
20260903023518 16 140 6.4 9.7 0.00 0.00 0.00 82 1021.1
20260903022518 16 140 6.4 9.7 0.00 0.00 0.00 82 1021.0
20260903021130 16 141 4.8 6.4 0.00 0.00 0.00 83 1021.0
20260903020518 16 142 4.8 8.0 0.00 0.00 0.00 84 1021.0
20260903015518 16 136 6.4 9.7 0.00 0.00 0.00 84 1021.0
20260903014130 16 137 6.4 9.7 0.00 0.00 0.00 83 1020.9
20260903013517 16 141 4.8 8.0 0.00 0.00 0.00 82 1021.0
20260903012517 16 156 4.8 8.0 0.00 0.00 0.00 82 1021.0
20260903011131 16 187 3.2 9.7 0.00 0.00 0.00 82 1020.9
20260903010518 16 161 8.0 9.7 0.00 0.00 0.00 80 1020.7
20260903005518 16 149 6.4 9.7 0.00 0.00 0.00 80 1020.8
20260903004131 16 147 4.8 8.0 0.00 0.00 0.00 78 1020.7
20260903003518 16 157 6.4 11.3 0.00 0.00 0.00 79 1020.7
20260903002518 16 158 8.0 12.9 0.00 0.00 0.00 80 1020.7
20260903001530 16 171 6.4 11.3 0.00 0.00 0.00 79 1020.7
20260903000517 16 168 4.8 9.7 0.00 0.00 0.00 80 1020.8
20260902235517 16 164 4.8 8.0 0.00 0.00 0.00 79 1020.8
20260902234131 16 158 4.8 9.7 0.00 0.00 0.00 79 1020.8
20260902233517 16 155 6.4 11.3 0.00 0.00 0.00 80 1020.8
20260902232517 16 158 6.4 11.3 0.00 0.00 0.00 79 1020.8
20260902231518 16 151 4.8 9.7 0.00 0.00 0.00 79 1020.9
20260902230518 16 139 6.4 9.7 0.00 0.00 0.00 79 1020.8
20260902225518 16 145 6.4 11.3 0.00 0.00 0.00 78 1020.8
20260902224131 16 144 6.4 11.3 0.00 0.00 0.00 78 1020.8
20260902223518 16 153 4.8 8.0 0.00 0.00 0.00 78 1020.8
20260902222518 16 153 8.0 11.3 0.00 0.00 0.00 77 1020.6
20260902221131 17 152 8.0 11.3 0.00 0.00 0.00 76 1020.5
20260902220517 17 157 8.0 11.3 0.00 0.00 0.00 76 1020.4
20260902215517 17 156 6.4 9.7 0.00 0.00 0.00 78 1020.4
20260902214131 17 161 6.4 9.7 0.00 0.00 0.00 76 1020.2
20260902213517 17 166 6.4 9.7 0.00 0.00 0.00 76 1020.3
20260902211131 17 149 4.8 9.7 0.00 0.00 0.00 76 1020.3
20260902210518 17 149 6.4 9.7 0.00 0.00 0.00 74 1020.2
20260902205518 17 158 6.4 8.0 0.00 0.00 0.00 74 1020.2
20260902204132 17 143 4.8 8.0 0.00 0.00 0.00 75 1020.2
20260902203517 17 148 4.8 6.4 0.00 0.00 0.00 74 1020.1
20260902202518 18 148 4.8 6.4 0.00 0.00 0.00 72 1020.1
20260902201131 18 145 4.8 6.4 0.00 0.00 0.00 70 1020.1
20260902200518 18 145 4.8 8.0 0.00 0.00 0.00 68 1020.1
20260902195518 18 143 4.8 8.0 0.00 0.00 0.00 68 1019.9
20260902194131 19 146 3.2 4.8 0.00 0.00 0.00 65 1019.9
20260902193518 19 97 1.6 3.2 0.00 0.00 0.00 66 1019.7
20260902192517 19 73 1.6 3.2 0.00 0.00 0.00 66 1019.9
20260902191131 19 52 1.6 3.2 0.00 0.00 0.00 65 1019.9
20260902190517 20 120 1.6 4.8 0.00 0.00 0.00 63 1019.6
20260902185518 20 113 3.2 6.4 0.00 0.00 0.00 61 1019.3
20260902184131 20 122 3.2 4.8 0.00 0.00 0.00 59 1019.3
20260902183518 20 115 4.8 8.0 0.00 0.00 0.00 59 1019.0
20260902182518 20 109 4.8 8.0 0.00 0.00 0.00 58 1019.0
20260902181131 21 135 3.2 8.0 0.00 0.00 0.00 56 1018.7
20260902180518 21 89 1.6 8.0 0.00 0.00 0.00 56 1018.6
20260902175518 21 38 3.2 9.7 0.00 0.00 0.00 55 1018.6
20260902174131 22 49 6.4 11.3 0.00 0.00 0.00 52 1018.4
20260902173517 22 31 6.4 12.9 0.00 0.00 0.00 50 1018.3
20260902172518 22 338 3.2 9.7 0.00 0.00 0.00 49 1018.3
20260902171131 22 310 1.6 4.8 0.00 0.00 0.00 49 1018.2
20260902170518 22 288 3.2 6.4 0.00 0.00 0.00 47 1018.2
20260902165518 22 319 4.8 9.7 0.00 0.00 0.00 47 1018.2
20260902164131 23 313 4.8 9.7 0.00 0.00 0.00 45 1018.2
20260902163518 23 323 6.4 12.9 0.00 0.00 0.00 43 1018.0
20260902162518 23 314 4.8 12.9 0.00 0.00 0.00 44 1018.0
20260902161131 23 309 4.8 11.3 0.00 0.00 0.00 43 1017.9
20260902160517 24 290 3.2 12.9 0.00 0.00 0.00 42 1017.9
20260902155518 25 333 3.2 12.9 0.00 0.00 0.00 42 1017.8
20260902154131 25 278 4.8 14.5 0.00 0.00 0.00 42 1017.9
20260902153518 25 338 6.4 17.7 0.00 0.00 0.00 45 1017.8
20260902152517 25 304 6.4 17.7 0.00 0.00 0.00 43 1017.8
20260902151131 25 322 4.8 12.9 0.00 0.00 0.00 43 1017.7
20260902150518 25 325 8.0 17.7 0.00 0.00 0.00 43 1017.8
20260902145518 25 301 6.4 16.1 0.00 0.00 0.00 43 1017.8
20260902144131 25 305 6.4 16.1 0.00 0.00 0.00 44 1018.1
20260902143517 24 107 3.2 11.3 0.00 0.00 0.00 46 1018.3
20260902142518 25 90 3.2 11.3 0.00 0.00 0.00 45 1018.2
20260902141131 25 70 4.8 12.9 0.00 0.00 0.00 46 1017.9
20260902140518 24 22 6.4 16.1 0.00 0.00 0.00 45 1018.3
20260902135518 25 276 1.6 11.3 0.00 0.00 0.00 48 1018.2
20260902134129 24 359 3.2 14.5 0.00 0.00 0.00 47 1018.5
20260902133518 24 31 4.8 12.9 0.00 0.00 0.00 46 1018.4
20260902132518 23 12 6.4 16.1 0.00 0.00 0.00 45 1018.6
20260902131131 23 321 3.2 11.3 0.00 0.00 0.00 52 1018.7
20260902130518 23 319 4.8 16.1 0.00 0.00 0.00 49 1018.7
20260902125518 24 327 0.0 9.7 0.00 0.00 0.00 46 1018.6
20260902124130 23 311 4.8 12.9 0.00 0.00 0.00 45 1018.8
20260902123518 23 329 6.4 17.7 0.00 0.00 0.00 47 1018.9
20260902122518 23 321 4.8 16.1 0.00 0.00 0.00 46 1018.9
20260902121131 23 339 4.8 9.7 0.00 0.00 0.00 49 1019.1
20260902120517 23 346 3.2 11.3 0.00 0.00 0.00 52 1019.1
20260902115517 23 6 3.2 9.7 0.00 0.00 0.00 53 1019.1
20260902114131 23 323 4.8 11.3 0.00 0.00 0.00 52 1019.2
20260902113518 23 330 3.2 9.7 0.00 0.00 0.00 52 1019.2
20260902112518 23 332 6.4 11.3 0.00 0.00 0.00 51 1019.3
20260902111131 23 14 4.8 12.9 0.00 0.00 0.00 51 1019.4
20260902110518 23 335 4.8 11.3 0.00 0.00 0.00 49 1019.6
20260902105517 23 8 4.8 9.7 0.00 0.00 0.00 53 1019.6
20260902104131 23 41 3.2 9.7 0.00 0.00 0.00 49 1019.7
20260902103518 23 84 1.6 8.0 0.00 0.00 0.00 50 1019.7
20260902102517 23 32 3.2 8.0 0.00 0.00 0.00 49 1019.8
20260902101131 23 360 3.2 6.4 0.00 0.00 0.00 50 1019.9
20260902100518 22 303 4.8 14.5 0.00 0.00 0.00 49 1020.0
20260902095518 22 186 3.2 8.0 0.00 0.00 0.00 49 1020.0
20260902094131 22 262 3.2 6.4 0.00 0.00 0.00 50 1020.1
20260902093518 22 263 3.2 6.4 0.00 0.00 0.00 50 1020.1
20260902092518 22 216 1.6 6.4 0.00 0.00 0.00 50 1020.1
20260902091130 22 99 3.2 8.0 0.00 0.00 0.00 49 1020.2
20260902090518 22 104 3.2 8.0 0.00 0.00 0.00 53 1020.2
20260902084130 21 45 1.6 6.4 0.00 0.00 0.00 60 1020.6
20260902083518 21 353 1.6 8.0 0.00 0.00 0.00 58 1020.5
20260902082518 21 2 1.6 4.8 0.00 0.00 0.00 61 1020.5
20260902081130 20 77 1.6 4.8 0.00 0.00 0.00 60 1020.6
20260902080518 20 137 1.6 4.8 0.00 0.00 0.00 65 1020.9
20260902075518 19 145 3.2 9.7 0.00 0.00 0.00 68 1021.0
20260902074131 18 150 4.8 9.7 0.00 0.00 0.00 69 1020.9